When you browse on this site, cookies collect data to enhance your experience and personalize the content and advertising you see.
Visit our Privacy Policy to learn more. By continuing to use the site, you agree to this use of cookies and data.
  • In Lithuania
  • List of Countries
  • For 7 days
  • Water Temperature
  • Satellite Maps
  • Weather Map
  • Weather Widgets
  • user-avatar
    Login

    Hourly Weather Krasnyy Osetrik

    Today, 16 June, Sunday

    Time Temperature Precipitation Wind Pressure Humidity
    00:00 +16°C° 0 mm 2 mps 743 mmHg 85%
    01:00 +15°C° 0 mm 1 mps 743 mmHg 87%
    02:00 +14°C° 0 mm 1 mps 743 mmHg 90%
    03:00 +12°C° 0 mm 0 mps 743 mmHg 92%
    04:00 +14°C° 0 mm 1 mps 743 mmHg 91%
    05:00 +14°C° 0 mm 1 mps 743 mmHg 91%
    06:00 +15°C° 0 mm 1 mps 743 mmHg 90%
    07:00 +16°C° 0 mm 1 mps 743 mmHg 86%
    08:00 +18°C° 0 mm 1 mps 743 mmHg 82%
    09:00 +17°C° 0 mm 0 mps 743 mmHg 78%
    10:00 +20°C° 0.5 mm 1 mps 743 mmHg 77%
    11:00 +20°C° 0.5 mm 2 mps 743 mmHg 77%
    12:00 +20°C° 0.5 mm 3 mps 743 mmHg 76%
    13:00 +21°C° 0.3 mm 3 mps 743 mmHg 74%
    14:00 +21°C° 0.3 mm 3 mps 743 mmHg 72%
    15:00 +22°C° 0.3 mm 4 mps 743 mmHg 70%
    16:00 +22°C° 0.1 mm 3 mps 743 mmHg 71%
    17:00 +21°C° 0.1 mm 3 mps 743 mmHg 73%
    18:00 +21°C° 0.1 mm 3 mps 742 mmHg 74%
    19:00 +20°C° 0 mm 3 mps 743 mmHg 79%
    20:00 +18°C° 0 mm 2 mps 743 mmHg 85%
    21:00 +17°C° 0 mm 2 mps 743 mmHg 90%
    22:00 +16°C° 0 mm 2 mps 743 mmHg 90%
    23:00 +15°C° 0 mm 2 mps 743 mmHg 90%

    Tomorrow, 17 June, Monday

    Time Temperature Precipitation Wind Pressure Humidity
    00:00 +15°C° 0 mm 1 mps 743 mmHg 90%
    01:00 +14°C° 0 mm 1 mps 744 mmHg 90%
    02:00 +14°C° 0 mm 1 mps 744 mmHg 90%
    03:00 +14°C° 0 mm 1 mps 744 mmHg 90%
    04:00 +14°C° 0 mm 1 mps 744 mmHg 87%
    05:00 +15°C° 0 mm 1 mps 744 mmHg 85%
    06:00 +16°C° 0 mm 1 mps 744 mmHg 83%
    07:00 +18°C° 0 mm 1 mps 744 mmHg 78%
    08:00 +20°C° 0 mm 1 mps 744 mmHg 72%
    09:00 +21°C° 0 mm 1 mps 744 mmHg 67%
    10:00 +22°C° 0 mm 1 mps 744 mmHg 64%
    11:00 +23°C° 0 mm 1 mps 744 mmHg 60%
    12:00 +24°C° 0 mm 1 mps 744 mmHg 57%
    13:00 +24°C° 0.1 mm 2 mps 744 mmHg 60%
    14:00 +24°C° 0.1 mm 2 mps 744 mmHg 63%
    15:00 +24°C° 0.1 mm 2 mps 744 mmHg 65%
    16:00 +24°C° 0.1 mm 2 mps 744 mmHg 68%
    17:00 +24°C° 0.1 mm 2 mps 743 mmHg 70%
    18:00 +24°C° 0.1 mm 2 mps 743 mmHg 72%
    19:00 +23°C° 0 mm 1 mps 743 mmHg 74%
    20:00 +22°C° 0 mm 1 mps 743 mmHg 76%
    21:00 +21°C° 0 mm 1 mps 743 mmHg 78%
    22:00 +20°C° 0 mm 1 mps 743 mmHg 79%
    23:00 +20°C° 0 mm 1 mps 743 mmHg 80%

    Day after tomorrow, 18 June, Tuesday

    Time Temperature Precipitation Wind Pressure Humidity
    00:00 +19°C° 0 mm 1 mps 743 mmHg 82%
    01:00 +18°C° 0 mm 2 mps 743 mmHg 85%
    02:00 +17°C° 0 mm 2 mps 743 mmHg 87%
    03:00 +16°C° 0 mm 2 mps 743 mmHg 90%
    04:00 +17°C° 0 mm 2 mps 743 mmHg 89%
    05:00 +18°C° 0 mm 2 mps 742 mmHg 88%
    06:00 +18°C° 0 mm 3 mps 742 mmHg 87%
    07:00 +19°C° 0.1 mm 3 mps 742 mmHg 84%
    08:00 +21°C° 0.1 mm 3 mps 743 mmHg 80%
    09:00 +22°C° 0.1 mm 3 mps 743 mmHg 76%
    10:00 +22°C° 0.5 mm 3 mps 743 mmHg 78%
    11:00 +22°C° 0.5 mm 3 mps 743 mmHg 80%
    12:00 +23°C° 0.5 mm 2 mps 743 mmHg 82%
    13:00 +21°C° 0.3 mm 3 mps 742 mmHg 85%
    14:00 +21°C° 0.3 mm 3 mps 742 mmHg 87%
    15:00 +20°C° 0.3 mm 4 mps 742 mmHg 89%
    16:00 +21°C° 0 mm 4 mps 742 mmHg 86%
    17:00 +21°C° 0 mm 4 mps 742 mmHg 82%
    18:00 +22°C° 0 mm 4 mps 742 mmHg 78%
    19:00 +21°C° 0 mm 3 mps 743 mmHg 81%
    20:00 +20°C° 0 mm 2 mps 743 mmHg 84%
    21:00 +19°C° 0 mm 1 mps 743 mmHg 87%
    22:00 +18°C° 0 mm 2 mps 743 mmHg 85%
    23:00 +17°C° 0 mm 2 mps 744 mmHg 84%

    19 June, Wednesday

    Time Temperature Precipitation Wind Pressure Humidity
    00:00 +16°C° 0 mm 2 mps 744 mmHg 82%
    01:00 +16°C° 0 mm 2 mps 744 mmHg 83%
    02:00 +16°C° 0 mm 2 mps 744 mmHg 84%
    03:00 +16°C° 0 mm 2 mps 744 mmHg 85%
    04:00 +16°C° 0 mm 2 mps 744 mmHg 85%
    05:00 +17°C° 0 mm 2 mps 745 mmHg 85%
    06:00 +17°C° 0 mm 3 mps 745 mmHg 85%
    07:00 +18°C° 0 mm 3 mps 745 mmHg 80%
    08:00 +20°C° 0 mm 3 mps 745 mmHg 75%
    09:00 +21°C° 0 mm 3 mps 745 mmHg 70%
    10:00 +22°C° 0 mm 3 mps 745 mmHg 66%
    11:00 +24°C° 0 mm 3 mps 746 mmHg 62%
    12:00 +25°C° 0 mm 3 mps 746 mmHg 59%
    13:00 +26°C° 0 mm 3 mps 746 mmHg 59%
    14:00 +26°C° 0 mm 3 mps 746 mmHg 59%
    15:00 +26°C° 0 mm 3 mps 745 mmHg 59%
    16:00 +26°C° 0 mm 3 mps 745 mmHg 63%
    17:00 +25°C° 0 mm 3 mps 745 mmHg 66%
    18:00 +25°C° 0 mm 2 mps 745 mmHg 70%
    19:00 +23°C° 0 mm 2 mps 745 mmHg 72%
    20:00 +22°C° 0 mm 1 mps 745 mmHg 74%
    21:00 +20°C° 0 mm 1 mps 745 mmHg 76%
    22:00 +19°C° 0 mm 1 mps 746 mmHg 75%
    23:00 +19°C° 0 mm 1 mps 746 mmHg 75%

    20 June, Thursday

    Time Temperature Precipitation Wind Pressure Humidity
    00:00 +17°C° 0 mm 2 mps 746 mmHg 74%
    01:00 +17°C° 0 mm 2 mps 746 mmHg 77%
    02:00 +16°C° 0 mm 2 mps 746 mmHg 80%
    03:00 +16°C° 0 mm 2 mps 746 mmHg 84%
    04:00 +18°C° 0 mm 1 mps 747 mmHg 83%
    05:00 +18°C° 0 mm 1 mps 747 mmHg 83%
    06:00 +19°C° 0 mm 1 mps 747 mmHg 83%
    07:00 +21°C° 0 mm 1 mps 747 mmHg 78%
    08:00 +22°C° 0 mm 1 mps 747 mmHg 72%
    09:00 +24°C° 0 mm 1 mps 747 mmHg 67%
    10:00 +25°C° 0 mm 1 mps 747 mmHg 62%
    11:00 +26°C° 0 mm 1 mps 747 mmHg 58%
    12:00 +27°C° 0 mm 1 mps 747 mmHg 53%
    13:00 +27°C° 0 mm 1 mps 747 mmHg 50%
    14:00 +28°C° 0 mm 1 mps 747 mmHg 48%
    15:00 +26°C° 0 mm 0 mps 747 mmHg 45%
    16:00 +28°C° 0 mm 1 mps 747 mmHg 50%
    17:00 +28°C° 0 mm 1 mps 746 mmHg 54%
    18:00 +27°C° 0 mm 1 mps 746 mmHg 58%
    19:00 +25°C° 0 mm 1 mps 746 mmHg 60%
    20:00 +21°C° 0 mm 0 mps 746 mmHg 62%
    21:00 +19°C° 0 mm 0 mps 746 mmHg 64%
    22:00 +20°C° 0 mm 1 mps 746 mmHg 65%
    23:00 +20°C° 0 mm 1 mps 746 mmHg 66%

    21 June, Friday

    Time Temperature Precipitation Wind Pressure Humidity
    00:00 +19°C° 0 mm 1 mps 746 mmHg 68%
    01:00 +19°C° 0 mm 1 mps 746 mmHg 69%
    02:00 +19°C° 0 mm 1 mps 747 mmHg 70%
    03:00 +18°C° 0 mm 1 mps 747 mmHg 72%
    04:00 +19°C° 0 mm 1 mps 747 mmHg 74%
    05:00 +20°C° 0 mm 1 mps 747 mmHg 76%
    06:00 +20°C° 0 mm 1 mps 747 mmHg 78%
    07:00 +22°C° 0 mm 1 mps 747 mmHg 74%
    08:00 +23°C° 0 mm 1 mps 747 mmHg 70%
    09:00 +25°C° 0 mm 1 mps 747 mmHg 66%
    10:00 +25°C° 0 mm 1 mps 747 mmHg 62%
    11:00 +26°C° 0 mm 2 mps 747 mmHg 58%
    12:00 +27°C° 0 mm 2 mps 747 mmHg 54%
    13:00 +27°C° 0 mm 2 mps 747 mmHg 55%
    14:00 +27°C° 0 mm 2 mps 747 mmHg 56%
    15:00 +27°C° 0 mm 3 mps 747 mmHg 57%
    16:00 +27°C° 0 mm 2 mps 747 mmHg 61%
    17:00 +27°C° 0 mm 2 mps 746 mmHg 64%
    18:00 +27°C° 0 mm 2 mps 746 mmHg 68%
    19:00 +25°C° 0.1 mm 2 mps 746 mmHg 71%
    20:00 +24°C° 0.1 mm 1 mps 747 mmHg 74%
    21:00 +22°C° 0.1 mm 1 mps 747 mmHg 77%
    22:00 +21°C° 0 mm 1 mps 747 mmHg 78%
    23:00 +21°C° 0 mm 1 mps 746 mmHg 79%
    Show more